Татаринцево

Россия / Московская область     55°20′47″N   38°20′04″E
темп.,
°C
ветер,
м/с
пор.,
м/с
влажн.,
%
обл.,
%
осадки,
мм/ч
давл.,
гПа
погр.,
м
14 мая, пт
пт1400:00+9ююв3695100 0.0 1017100
03:00+8ююв33944 0.0 101838
06:00+10юв249387 0.0 1018104
09:00+15вюв468240 0.0 1017478
12:00+19ююв466845 0.0 10161089
15:00+18ююв6884100 1.6 1016712
18:00+16с4693100 5.2 1011276
21:00+13св4697100 22.9 1012105
15 мая, сб
сб1500:00+13в3498100 1.6 101186
03:00+15ююв61592100 4.1 1011464
06:00+14ююв399480 0.3 1009229
09:00+18ююв598689 2.2 1010667
12:00+19ююз6781100 0.4 1010953
15:00+21ююз686729 0.8 10091505
18:00+19ююз6107461 0.5 1010572
21:00+14ю412925 0.5 1011260
16 мая, вс
вс1600:00+13ююз411945 0.0 1011289
03:00+11ююз49960 0.0 1012181
06:00+12ююз49935 0.0 1013243
09:00+17юз58745 0.0 1014719
12:00+20ююз696317 0.2 10141452
15:00+19ююз710716 1.3 10141468
18:00+19юз58730 0.6 1014474
21:00+14юз228612 0.6 101516
17 мая, пн
пн1700:00+13ююв1185100 0.0 101511
03:00+12юв228926 0.0 101618
06:00+13вюв358953 0.0 1015122
09:00+19вюв477680 0.0 1015423
12:00+23вюв686698 0.0 1013889
15:00+24юв686828 0.0 10121001
18:00+23юв611765 0.0 1010547
21:00+19юв51688100 0.0 1010392
18 мая, вт
вт1800:00+17юв5148797 0.0 1010288
03:00+15юв5148766 0.0 1008278
06:00+15юв51383100 0.0 1008285
09:00+19юв6127386 0.0 1007518
12:00+22ююв71171100 0.0 1007921
15:00+22ююв61081100 1.2 1007968
18:00+21ююв71280100 1.1 1006791
21:00+17ю5138734 3.9 1007360